Midland, MI

1:13 AM EDT on June 28, 2017 (GMT -0400)
Barstow

Weather History for KIKW - December, 2013

Change the Weather History Date:

Wednesday, December 18, 2013

  Actual Average (KMBS) Record (KMBS)
Temperature  
Mean Temperature 26 °F -  
Max Temperature 28 °F 30 °F 46 °F (2002)
Min Temperature 23 °F 18 °F 6 °F (2000)
Degree Days  
Heating Degree Days 40    
Moisture  
Dew Point 19 °F    
Average Humidity 74    
Maximum Humidity 88    
Minimum Humidity 57    
Precipitation  
Precipitation 0.00 in - - ()
Sea Level Pressure  
Sea Level Pressure 29.95 in    
Wind  
Wind Speed 7 mph (SW)    
Max Wind Speed 16 mph    
Max Gust Speed 24 mph    
Visibility 10 miles    
Events Snow    
Averages and records for this station are not official NWS values.
T = Trace of Precipitation, MM = Missing Value Source: NWS Daily Summary

Daily Weather History Graph

Daily Weather History Graph

Search for Another Location

Airport or City:

Trip Planner

Search our weather history database for the weather conditions in past years. The results will help you decide how hot, cold, wet, or windy it might be!

Date:

Astronomy

Dec. 18, 2013 Rise Set
Actual Time 8:05 AM EST 5:01 PM EST
Civil Twilight 7:32 AM EST 5:34 PM EST
Nautical Twilight 6:56 AM EST 6:11 PM EST
Astronomical Twilight 6:21 AM EST 6:45 PM EST
Moon 6:35 PM EST (12/18) 8:42 AM EST (12/18)
Length of Visible Light 10h 01m
Length of Day
8h 56m
Full, 98% of the Moon is Illuminated
Dec 18
Full
Dec 25
Last Quarter
Jan 1
New
Jan 7
First Quarter
Jan 15
Full

Hourly Weather History & Observations

Time (EST) Temp. Windchill Dew Point Humidity Pressure Visibility Wind Dir Wind Speed Gust Speed Precip Events Conditions
12:12 AM 23.4 °F 16.2 °F 18.9 °F 83% 29.94 in 10.0 mi SW 5.8 mph - N/A   Overcast
12:33 AM 23.7 °F 16.6 °F 19.2 °F 83% 29.94 in 10.0 mi SW 5.8 mph - N/A   Overcast
12:52 AM 23.9 °F 15.8 °F 19.4 °F 83% 29.94 in 10.0 mi SW 6.9 mph - N/A   Overcast
1:12 AM 23.9 °F 19.5 °F 20.1 °F 85% 29.94 in 10.0 mi SW 3.5 mph - N/A   Overcast
1:33 AM 23.9 °F 16.8 °F 20.3 °F 86% 29.94 in 7.0 mi SW 5.8 mph - N/A Snow Light Snow
1:52 AM 24.1 °F 18.2 °F 20.8 °F 87% 29.93 in 7.0 mi SW 4.6 mph - N/A Snow Light Snow
2:12 AM 24.6 °F 18.8 °F 21.4 °F 87% 29.94 in 7.0 mi SW 4.6 mph - N/A Snow Light Snow
2:33 AM 24.3 °F 18.4 °F 21.2 °F 88% 29.94 in 10.0 mi SW 4.6 mph - N/A   Overcast
2:52 AM 24.8 °F 19.1 °F 21.7 °F 88% 29.94 in 10.0 mi SW 4.6 mph - N/A   Overcast
3:12 AM 24.8 °F 19.1 °F 21.7 °F 88% 29.95 in 10.0 mi SW 4.6 mph - N/A   Overcast
3:33 AM 25.5 °F 18.7 °F 21.9 °F 86% 29.95 in 10.0 mi WSW 5.8 mph - N/A   Overcast
3:52 AM 26.1 °F 20.5 °F 22.1 °F 85% 29.95 in 10.0 mi WSW 4.6 mph - N/A   Overcast
4:12 AM 26.2 °F 20.7 °F 22.1 °F 84% 29.95 in 10.0 mi WSW 4.6 mph - N/A   Overcast
4:33 AM 26.4 °F 18.9 °F 22.3 °F 84% 29.95 in 10.0 mi WSW 6.9 mph - N/A Snow Light Snow
4:52 AM 26.2 °F 19.6 °F 22.5 °F 86% 29.95 in 10.0 mi WSW 5.8 mph - N/A   Overcast
5:13 AM 26.4 °F 18.9 °F 22.6 °F 86% 29.96 in 10.0 mi WSW 6.9 mph - N/A Snow Light Snow
5:32 AM 26.6 °F 20.0 °F 22.8 °F 86% 29.96 in 10.0 mi WSW 5.8 mph - N/A Snow Light Snow
5:52 AM 26.6 °F 20.0 °F 23.0 °F 86% 29.97 in 10.0 mi WSW 5.8 mph - N/A Snow Light Snow
6:13 AM 26.6 °F 20.0 °F 23.0 °F 86% 29.97 in 7.0 mi WSW 5.8 mph - N/A Snow Light Snow
6:32 AM 26.6 °F 20.0 °F 23.0 °F 86% 29.98 in 10.0 mi West 5.8 mph - N/A Snow Light Snow
6:52 AM 27.0 °F 20.5 °F 23.0 °F 85% 29.98 in 10.0 mi West 5.8 mph - N/A Snow Light Snow
7:13 AM 27.0 °F 21.6 °F 23.0 °F 85% 29.99 in 10.0 mi WSW 4.6 mph - N/A   Overcast
7:32 AM 27.0 °F 20.5 °F 23.0 °F 85% 30.00 in 7.0 mi West 5.8 mph - N/A Snow Light Snow
7:52 AM 27.1 °F 20.7 °F 21.9 °F 81% 30.00 in 10.0 mi West 5.8 mph - N/A   Overcast
8:11 AM 27.0 °F 18.7 °F 20.5 °F 77% 30.01 in 10.0 mi West 8.1 mph - N/A   Overcast
8:34 AM 26.6 °F 18.2 °F 19.4 °F 74% 30.02 in 10.0 mi WSW 8.1 mph - N/A   Overcast
8:41 AM 27.0 °F 18.7 °F 18.5 °F 70% 30.02 in 10.0 mi WSW 8.1 mph - N/A   Overcast
8:52 AM 26.6 °F 16.2 °F 18.3 °F 71% 30.02 in 10.0 mi WSW 11.5 mph - N/A   Overcast
9:13 AM 26.6 °F 18.2 °F 17.6 °F 69% 30.03 in 10.0 mi West 8.1 mph - N/A   Overcast
9:32 AM 26.4 °F 16.0 °F 18.3 °F 71% 30.03 in 10.0 mi West 11.5 mph 16.1 mph N/A   Overcast
9:52 AM 26.4 °F 17.3 °F 18.1 °F 71% 30.04 in 10.0 mi WSW 9.2 mph - N/A   Overcast
10:13 AM 26.1 °F 16.8 °F 18.0 °F 71% 30.04 in 10.0 mi WSW 9.2 mph - N/A   Overcast
10:32 AM 26.2 °F 18.6 °F 18.1 °F 71% 30.04 in 10.0 mi West 6.9 mph - N/A   Overcast
10:52 AM 26.4 °F 16.6 °F 18.3 °F 71% 30.06 in 10.0 mi WSW 10.4 mph - N/A   Overcast
11:13 AM 26.4 °F 17.3 °F 18.3 °F 71% 30.05 in 10.0 mi WSW 9.2 mph - N/A   Overcast
11:32 AM 26.6 °F 16.8 °F 18.1 °F 70% 30.05 in 10.0 mi West 10.4 mph - N/A   Overcast
11:52 AM 26.6 °F 16.8 °F 18.0 °F 70% 30.04 in 10.0 mi WSW 10.4 mph 17.3 mph N/A   Overcast
12:13 PM 27.0 °F 17.3 °F 17.6 °F 68% 30.04 in 10.0 mi SW 10.4 mph - N/A   Overcast
12:32 PM 27.3 °F 16.6 °F 17.1 °F 65% 30.04 in 10.0 mi WSW 12.7 mph 18.4 mph N/A   Overcast
12:52 PM 27.3 °F 15.6 °F 16.7 °F 64% 30.03 in 10.0 mi SW 15.0 mph - N/A   Mostly Cloudy
1:13 PM 27.3 °F 19.9 °F 16.2 °F 63% 30.02 in 10.0 mi WSW 6.9 mph - N/A   Scattered Clouds
1:32 PM 26.6 °F 15.7 °F 16.7 °F 66% 30.02 in 10.0 mi SSW 12.7 mph - N/A   Scattered Clouds
1:52 PM 27.0 °F 15.6 °F 17.1 °F 66% 30.01 in 10.0 mi WSW 13.8 mph 19.6 mph N/A   Scattered Clouds
2:12 PM 27.0 °F 18.0 °F 17.4 °F 67% 30.00 in 10.0 mi SW 9.2 mph - N/A   Scattered Clouds
2:32 PM 27.3 °F 15.2 °F 18.3 °F 69% 30.00 in 10.0 mi WSW 16.1 mph 24.2 mph N/A   Scattered Clouds
2:53 PM 27.5 °F 18.0 °F 18.5 °F 69% 29.99 in 10.0 mi SW 10.4 mph - N/A   Scattered Clouds
3:12 PM 28.0 °F 16.5 °F 19.2 °F 70% 29.98 in 10.0 mi SW 15.0 mph - N/A   Clear
3:33 PM 28.2 °F 19.5 °F 19.4 °F 70% 29.97 in 10.0 mi SSW 9.2 mph - N/A   Clear
3:53 PM 28.2 °F 18.3 °F 19.8 °F 71% 29.97 in 10.0 mi SSW 11.5 mph 18.4 mph N/A   Clear
4:12 PM 27.9 °F 18.4 °F 19.4 °F 71% 29.96 in 10.0 mi SW 10.4 mph 18.4 mph N/A   Clear
4:33 PM 28.0 °F 21.7 °F 19.8 °F 71% 29.95 in 10.0 mi SSW 5.8 mph - N/A   Mostly Cloudy
4:52 PM 28.0 °F 19.3 °F 19.9 °F 72% 29.94 in 10.0 mi SSW 9.2 mph - N/A   Mostly Cloudy
5:12 PM 27.5 °F 19.3 °F 20.3 °F 74% 29.93 in 10.0 mi SSW 8.1 mph - N/A   Scattered Clouds
5:33 PM 27.7 °F 20.4 °F 20.3 °F 74% 29.92 in 10.0 mi South 6.9 mph - N/A   Clear
5:52 PM 27.9 °F 20.6 °F 20.7 °F 74% 29.91 in 10.0 mi South 6.9 mph - N/A   Clear
6:04 PM 28.2 °F 19.5 °F 20.8 °F 74% 29.91 in 10.0 mi South 9.2 mph - N/A   Clear
6:33 PM 28.0 °F 21.7 °F 20.3 °F 73% 29.88 in 10.0 mi South 5.8 mph - N/A   Clear
6:52 PM 27.5 °F 21.1 °F 19.9 °F 73% 29.87 in 10.0 mi South 5.8 mph - N/A   Clear
7:12 PM 27.3 °F 19.1 °F 19.4 °F 72% 29.86 in 10.0 mi South 8.1 mph - N/A   Clear
7:33 PM 27.1 °F 19.7 °F 19.0 °F 72% 29.85 in 10.0 mi South 6.9 mph - N/A   Clear
7:52 PM 26.4 °F 18.9 °F 18.0 °F 70% 29.85 in 10.0 mi South 6.9 mph - N/A   Clear
8:12 PM 26.4 °F 17.3 °F 16.5 °F 66% 29.84 in 10.0 mi South 9.2 mph - N/A   Clear
8:33 PM 25.7 °F 16.4 °F 15.6 °F 66% 29.85 in 10.0 mi SSW 9.2 mph - N/A   Clear
8:52 PM 25.5 °F 17.8 °F 14.7 °F 64% 29.84 in 10.0 mi SSW 6.9 mph - N/A   Clear
9:12 PM 25.0 °F 18.1 °F 14.0 °F 63% 29.84 in 10.0 mi SSW 5.8 mph - N/A   Clear
9:33 PM 24.8 °F 16.1 °F 13.1 °F 61% 29.84 in 10.0 mi SSW 8.1 mph - N/A   Clear
9:52 PM 25.2 °F 17.3 °F 12.2 °F 58% 29.84 in 10.0 mi SSW 6.9 mph - N/A   Clear
10:13 PM 25.2 °F 17.3 °F 11.7 °F 57% 29.83 in 10.0 mi SSW 6.9 mph - N/A   Clear
10:32 PM 24.8 °F 19.1 °F 11.8 °F 58% 29.83 in 10.0 mi SSW 4.6 mph - N/A   Clear
10:52 PM 24.4 °F 17.5 °F 11.7 °F 58% 29.82 in 10.0 mi South 5.8 mph - N/A   Clear
11:13 PM 24.3 °F 19.9 °F 11.8 °F 59% 29.81 in 10.0 mi South 3.5 mph - N/A   Clear
11:32 PM 23.9 °F 18.0 °F 12.0 °F 61% 29.81 in 10.0 mi South 4.6 mph - N/A   Clear
11:52 PM 23.5 °F 16.4 °F 12.2 °F 62% 29.80 in 10.0 mi South 5.8 mph - N/A   Clear